DELTA 1 DEB, 7134

Orbit data source: Space-Track

DELTA 1 DEB, 7134 is space debris in SSO originally from a launch on Tue, 06 Nov 1973 UTC launched from the Air Force Western Test Range (AFWTR). Debris objects in space refer to the collection of defunct objects orbiting the Earth. Examples of debris include non-operational satellites, rocket bodies, and fragments generated from explosions, collisions, or faulty payload assembly.

Loading next visibility...
Identifier
7134, 1973-086CY
Orbit
SSO
Country
Flag of USUS
Related business
Manufacturer
Unknown
Mission
Spacecraft
Bus & Motor
Unknown
Mass
Unknown
Launch date (UTC)
1973-11-06 (52 years ago)
Launch vehicle
Unknown
Launch site
Air Force Western Test Range (AFWTR)
Object type
Payload
Rocket body
Debris
Shape & HBR
Unknown shape, 0.2 m
Radar Cross Section
Small (<0.1 m²)

Expand to show TLE details & history
Last TLE update: 10 hours ago

TLE from 10 hours ago
0 DELTA 1 DEB
1  7134U 73086CY  25355.30612000 -.00000058  00000-0 -76291-4 0  9995
2  7134 101.8433 125.9967 0018519 242.8057 145.2517 12.52929815377790
Epoch: 2025-12-21T07:20Z
TLE epoch observation values (Epoch: 2025-12-21T07:20:48.768Z)
Latitude
27.5662°
Longitude
-80.58081°
Altitude
1,467.274 km
Speed
7.126 km/s
True Right ascension
07h 58m 58s
True Declination
27° 26' 17"
Sunlit
Object was in full shadow at epoch
Visualization orbit readout
Latitude
Unknown
Longitude
Unknown
Altitude
Unknown
Speed
Unknown
Apparent Right ascension
Unknown
Apparent Declination
Unknown
Sunlit
N/A
Visualization observer readout
Local Sidereal Time
16:31:55
Azimuth
Unknown
Elevation
Unknown
Doppler factor
Unknown
Orbital elements
Apogee altitude
1,464.309 km
Perigee altitude
1,435.316 km
Semi-major axis
7,827.95 km
Eccentricity
0.00185
Inclination
101.8433°
RAAN
125.9967°
Arg. of periapsis
242.8057°
True anomaly
145.37243°
Mean anomaly
145.2517°
Eccentric anomaly
145.31209°
Mean motion
3.1338 °/min
Orbital period
114.88 mins
BSTAR
-0.000076291
Loading maneuver chart data...
Computing Atmospheric mass density...
Loading historical data...
Loading historical data...
Loading historical data...
Loading historical data...
Loading historical data...
Loading historical data...
Loading historical data...

Documentation

Showing up to 5 results
|